Regional Weather Roundup
Issued by NWS

Home | Current Version | Previous Version | Graphics & Text | Print | Product List | Glossary On
Versions: 1 2 3 4 5 6 7 8 9 10 11 12 13 14 15 16 17 18 19 20 21 22 23 24 25 26 27 28 29 30 31 32 33 34 35 36 37 38 39 40 41 42 43 44 45 46 47 48 49 50
000
ASUS43 KLOT 261708
RWRIL

ILLINOIS REGIONAL WEATHER ROUNDUP
NATIONAL WEATHER SERVICE CHICAGO/ROMEOVILLE IL
1200 PM CDT THU APR 26 2018

NOTE: "FAIR" INDICATES FEW OR NO CLOUDS BELOW 12,000 FEET WITH NO
SIGNIFICANT WEATHER AND/OR OBSTRUCTIONS TO VISIBILITY.

* THESE STATIONS ARE NOT UNDER NWS QUALITY CONTROL. THEY ALSO MAY NOT
  REPORT WEATHER SUCH AS PRECIPITATION OR FOG.

ILZ001-002-007-009-015-016-024-261800-
NORTHWEST ILLINOIS

CITY           SKY/WX    TMP DP  RH WIND       PRES   REMARKS
MOLINE         FAIR      65  34  31 NW6       29.94F
STERLING*      FAIR      62  33  33 SW5       29.95F
SAVANNA*       FAIR      60  35  38 S6        29.94F
$$

ILZ003-004-008-010-011-017-018-261800-
NORTH CENTRAL ILLINOIS

CITY           SKY/WX    TMP DP  RH WIND       PRES   REMARKS
ROCKFORD       CLOUDY    60  32  34 SW10      29.95F
FREEPORT*      FAIR      59  32  35 SW6       29.96S
ROCHELLE*      FAIR      61  32  34 W5        29.95F
DE KALB*       FAIR      59  32  35 SW7       29.96S
PERU*          FAIR      62  33  33 W8        29.97S
$$

ILZ005-006-012>014-019>023-261800-
NORTHEAST ILLINOIS

CITY           SKY/WX    TMP DP  RH WIND       PRES   REMARKS
CHICAGO-OHARE  PTSUNNY   58  26  29 SW5       29.94F
CHICAGO-MIDWAY PTSUNNY   58  27  30 E5        29.96F
AURORA         FAIR      60  32  34 S7        29.95F
LANSING*       FAIR      56  33  41 CALM      29.97S
JOLIET*        FAIR      59  30  32 CALM      29.97S
WAUKEGAN       FAIR      55  33  43 SE12      29.94F
DUPAGE AIRPORT FAIR      60  32  34 VRB6      29.94F
KANKAKEE*      FAIR      58  29  34 W3        29.97F
WHEELING       FAIR      59  27  29 S6        29.96F
MORRIS*        FAIR      60  29  31 CALM      29.96S
ROMEOVILLE*    FAIR      59  29  31 N5        29.96F
NORTHERLY ISL    N/A     45  35  68 E5          N/A
$$

LMZ740>746-261800-
SOUTHERN LAKE MICHIGAN

STATION/POSITION SKY/WX   TEMP    WIND        PRES    VSBY  WAVE
                          AIR SEA DIR/SP/G                  HT/PER
                          (F)     (DEG/KT/KT) (MB)    (MI)  (FT/S)
HARRISON CRIB              44     140/  5/  5   N/A
BURNHAM HARBOR             45      80/  4/  5   N/A
CALUMET HARBOR             43      50/  5/  6 1014.7S
BURNS HARBOR               41     360/  4/  5 1015.6F
MICHIGAN CITY              44     330/  5/  6   N/A
ST. JOSEPH                 41 43  340/  4/  6 1015.8          1/ 4
$$

ILZ025>027-034>036-040-047-049-050-058-095>099-261800-
WEST-CENTRAL ILLINOIS

CITY           SKY/WX    TMP DP  RH WIND       PRES   REMARKS
QUINCY         SUNNY     64  32  30 CALM      29.96F
GALESBURG*     FAIR      66  37  33 SW6       29.96F
MACOMB*        CLOUDY    63  33  32 CALM      29.98F
JACKSONVILLE*  SUNNY     62  33  33 CALM      29.96F
PITTSFIELD*    SUNNY     64  35  34 CALM      29.97F
$$

ILZ028>032-037-038-041>044-048-051>054-059>061-261800-
CENTRAL ILLINOIS

CITY           SKY/WX    TMP DP  RH WIND       PRES   REMARKS
PONTIAC        FAIR      59  30  34 E3        29.98S
BLOOMINGTON    FAIR      61  33  35 N5        29.98F
DECATUR        FAIR      63  36  36 N10       29.96F
PEORIA         FAIR      63  32  31 CALM      29.97F
LACON*         FAIR      61  34  36 SW3       29.96F
LINCOLN*       FAIR      62  37  40 SW3       29.97F
SPRINGFIELD    FAIR      65  37  35 W5        29.96F
TAYLORVILLE    FAIR      61  35  37 N5        29.97S
$$

ILZ033-039-045-046-055>057-062-063-261800-
EAST-CENTRAL ILLINOIS

CITY           SKY/WX    TMP DP  RH WIND       PRES   REMARKS
CHAMPAIGN      FAIR      61  30  31 N10G18    29.96F
DANVILLE*      FAIR      55  33  43 NE5       29.94F
RANTOUL*       FAIR      61  32  34 NE8       29.96F
MATTOON        FAIR      63  36  36 MISG      29.94F
PARIS*         FAIR      59  35  39 N8        29.96F
$$

ILZ079-100>102-261800-
SOUTHWEST ILLINOIS

CITY           SKY/WX    TMP DP  RH WIND       PRES   REMARKS
ALTON            N/A     64  39  39 N6        29.97S
BELLEVILLE     SUNNY     62  41  45 N5        29.95F
CAHOKIA*       SUNNY     64  36  35 NE5       29.96F
SPARTA*        CLOUDY    58  44  60 N5        29.97F
$$

ILZ064>066-069>071-074>076-080>082-084>086-088>090-092>094-261800-
SOUTH-CENTRAL ILLINOIS

CITY           SKY/WX    TMP DP  RH WIND       PRES   REMARKS
CARBONDALE     CLOUDY    58  42  55 NE6       29.94F
CAIRO*         CLOUDY    57  41  55 NE10      29.92S
EFFINGHAM*     FAIR      62  38  40 N8        29.96F
MARION         CLOUDY    54  39  58 NE8       29.95S
MT. VERNON     FAIR      64  38  38 NE9       29.93F
CENTRALIA*     SUNNY     64  38  39 N8        29.94F
SALEM*         FAIR      63  37  37 NE3       29.95F
METROPOLIS*    CLOUDY    58  40  51 NE8       29.93S
$$

ILZ067-068-072-073-078-083-087-091-261800-
SOUTHEAST ILLINOIS

CITY           SKY/WX    TMP DP  RH WIND       PRES   REMARKS
LAWRENCEVILLE  FAIR      65  27  23 MISG      29.93F
FLORA*         FAIR      63  38  40 N6        29.95F
FAIRFIELD*     FAIR      63  36  36 N9        29.92F
HARRISBURG*    PTSUNNY   60  44  54 NE7       29.94S
ROBINSON*      FAIR      61  36  40 N12       29.94F
CARMI*         FAIR      63  40  43 N8        29.92F
$$

ABBREVIATIONS USED IN REMARKS
   TC - TEMPERATURE IN CELSIUS
  WCI - WIND CHILL INDEX
   HX - HEAT INDEX
  VSB - VISIBILITY
$$





USA.gov is the U.S. government's official web portal to all federal, state and local government web resources and services.